User: anonymous
Location: Fort Wayne
(41.1310°N, 85.1290°W)
Time: 22:42:13
(UTC-04:00)
Language:

Gbstr 26 Del rocket - Orbit

View from above orbital plane
View from above orbital plane
View from above satellite
View from above satellite

Ground track
Ground track

The orbit data is extracted from the following two-line orbital elements,

1 25876U 99041E   14113.47426878  .00002435  00000-0  46249-3 0  3555
2 25876 051.7666 171.5835 0541297 278.1498 184.3639 14.01885691753044
Epoch (UTC): 23 April 2014 11:22:56
Eccentricity: 0.0541297
inclination: 51.7666°
perigee height: 494 km
apogee height: 1280 km
right ascension of ascending node: 171.5835°
argument of perigee: 278.1498°
revolutions per day: 14.01885691
mean anomaly at epoch: 184.3639°
orbit number at epoch: 75304

The dashed part of the orbit path shows where the satellite is in the earth's shadow,  

DLR